Regional Weather Roundup
Issued by NWS

Home | Current Version | Previous Version | Graphics & Text | Print | Product List | Glossary On
Versions: 1 2 3 4 5 6 7 8 9 10 11 12 13 14 15 16 17 18 19 20 21 22 23 24 25 26 27 28 29 30 31 32 33 34 35 36 37 38 39 40 41 42 43 44 45 46 47 48 49
000
ASUS43 KDMX 012007
RWRIA

WEATHER ROUNDUP FOR IOWA
NATIONAL WEATHER SERVICE DES MOINES IA
300 PM CDT SAT AUG 01 2015

NOTE: "FAIR" INDICATES FEW OR NO CLOUDS BELOW 12,000 FEET WITH NO
SIGNIFICANT WEATHER AND/OR OBSTRUCTIONS TO VISIBILITY.

* - THESE STATIONS ARE NOT NWS STATIONS...THUS NOT UNDER NWS
QUALITY CONTROL.  THEY ALSO DO NOT REPORT WEATHER SUCH
AS PRECIPITATION OR FOG.

IAZ001>003-012>014-020>022-031>034-043>046-012100-
   NORTHWEST IOWA

CITY           SKY/WX    TMP DP  RH WIND       PRES   REMARKS
CARROLL *      SUNNY     82  70  65 CALM      29.97F HX  86
CHEROKEE *     CLOUDY    81  68  65 SW7       29.97F HX  83
DENISON *      SUNNY     81  68  65 SW6       29.97F HX  83
LE MARS *      SUNNY     79  64  61 SW9       29.96F HX  81
ORANGE CITY *  SUNNY     79  64  61 SW10      29.96F HX  81
SHELDON *      SUNNY     81  66  61 SW10      29.95F HX  83
SIOUX CITY     CLOUDY    81  64  56 W3        29.95F HX  82
SPENCER        CLOUDY    83  65  54 SW13      29.97F HX  85
STORM LAKE *   SUNNY     81  68  65 W6        29.99F HX  83
$$

IAZ055>058-069>071-079>083-090>094-012100-
   SOUTHWEST IOWA

CITY           SKY/WX    TMP DP  RH WIND       PRES   REMARKS
ATLANTIC *     SUNNY     82  72  69 SW6G13    29.99F HX  87
AUDUBON *      SUNNY     84  72  65 S5        30.00S HX  89
CLARINDA *     SUNNY     86  73  66 SE5       30.01F HX  93
COUNCIL BLFS * SUNNY     81  68  65 W5        30.01F HX  83
CRESTON *      SUNNY     82  72  69 SE5       30.01F HX  87
HARLAN  *      SUNNY     81  75  83 SW8       30.02F HX  86
LAMONI         PTSUNNY   87  74  64 W3        30.00F HX  95
RED OAK *      MOSUNNY   82  70  65 S6        29.99F HX  86
SHENANDOAH *   SUNNY     82  72  69 SW5       30.00F HX  87
$$

IAZ047>049-059>061-072>074-084-012100-
   CENTRAL IOWA

CITY           SKY/WX    TMP DP  RH WIND       PRES   REMARKS
AMES           PTSUNNY   85  70  60 W8        29.97F HX  89
ANKENY *       SUNNY     86  72  62 W8        29.97F HX  92
CHARITON *     SUNNY     84  72  65 CALM      30.00S HX  89
DES MOINES     PTSUNNY   87  69  54 W8        29.97F HX  91
GRINNELL*      PTSUNNY   84  70  61 SW8       29.99F HX  88
KNOXVILLE *    SUNNY     84  72  65 VRB7      29.97F HX  89
MARSHALLTOWN   PTSUNNY   85  70  60 W9        29.97F HX  89
PELLA *        MOSUNNY   86  75  70 W6        29.99S HX  95
PERRY *          N/A     86  72  62 SW3       29.97F HX  92
$$

IAZ004>006-015-016-023>025-035-036-012100-
   NORTH CENTRAL IOWA

CITY           SKY/WX    TMP DP  RH WIND       PRES   REMARKS
ALGONA *       SUNNY     84  70  61 W10       29.97F HX  88
CLARION *      SUNNY     82  72  69 W12       29.98F HX  87
ESTHERVILLE    PTSUNNY   83  66  56 SW10      29.95F HX  85
FORT DODGE *   CLOUDY    82  68  61 W6        29.99F HX  85
MASON CITY     PTSUNNY   85  69  58 W7        29.98F HX  89
FOREST CITY *  SUNNY     82  64  54 W7        29.97S HX  84
IOWA FALLS *     N/A     84  70  61 W10       29.99F HX  88
$$

IAZ007>011-017>019-026>030-037>042-050>054-066-012100-
   NORTHEAST IOWA

CITY           SKY/WX    TMP DP  RH WIND       PRES   REMARKS
CEDAR RAPIDS   PTSUNNY   84  71  65 W9        29.97S HX  89
CHARLES CITY * SUNNY     84  70  61 NW7G14    29.97S HX  88
CLINTON *      PTSUNNY   84  64  51 W15       29.99S HX  86
DECORAH *      SUNNY     82  64  54 NW9       29.95S HX  84
DUBUQUE        PTSUNNY   85  69  58 W17       29.96S HX  89
MONTICELLO *   SUNNY     84  68  58 W13       29.96S HX  87
OELWEIN *      MOSUNNY   84  68  58 W12       29.97S HX  87
WATERLOO       PTSUNNY   86  72  62 SW14      29.95S HX  92
$$

IAZ064-065-067-068-078-012100-
   EAST CENTRAL IOWA

CITY           SKY/WX    TMP DP  RH WIND       PRES   REMARKS
DAVENPORT      PTSUNNY   83  62  49 W13       29.98S HX  84
IOWA CITY      MOSUNNY   85  67  54 SW12      29.98F HX  87
MT. PLEASANT * MOSUNNY   86  61  42 SW9       30.00R HX  86
MUSCATINE *    SUNNY     88  63  42 W13       29.97F HX  88
QUAD CITIES    MOSUNNY   86  60  41 SW13      29.97S HX  86
$$

IAZ062-063-075>077-085>089-095>099-012100-
   SOUTHEAST IOWA

CITY           SKY/WX    TMP DP  RH WIND       PRES   REMARKS
BURLINGTON     PTSUNNY   84  66  54 SW9       29.99S HX  86
FAIRFIELD *    SUNNY     84  68  58 S6        29.99S HX  87
FORT MADISON * SUNNY     82  68  61 S7        30.00S HX  85
KEOKUK *       SUNNY     84  70  61 VRB3G12   29.98F HX  88
OSKALOOSA *      N/A     86  72  62 W3        29.99S HX  92
CENTERVILLE *  SUNNY     84  72  65 W3        30.02S HX  89
OTTUMWA        MOSUNNY   85  72  65 W8        29.97F HX  91
WASHINGTON *   SUNNY     84  68  58 W8G14     30.00S HX  87
$$

ABBREVIATIONS USED IN REMARKS
   TC - TEMPERATURES IN CELSIUS
  WCI - WIND CHILL INDEX
   HX - HEAT INDEX
  VSB - VISIBILITY
$$




USA.gov is the U.S. government's official web portal to all federal, state and local government web resources and services.